This demonstration page uses our WeatherBlox Daily Observations layout. Learn more.

Left ArrowRight Arrow

34.74481, -87.66753

Hourly Observations for March 7, 2021

Temp ( °F °C ) Dew Point ( °F °C ) Humidity (%) Winds ( mph kmh ) Pressure ( in mb ) Visibility ( mi km ) Precip ( " mm )
12:53 am 00:53 Clear 40 4.4 22 -5.6 49 49 NNE 3 6 30.33 1027 10 16 0.00 0.00
1:53 am 01:53 Clear 41 5 22 -5.6 47 47 NNE 5 7 30.32 1027 10 16 0.00 0.00
2:53 am 02:53 Clear 36 2.2 24 -4.4 62 62 Calm 30.33 1027 10 16 0.00 0.00
3:53 am 03:53 Clear 34 1.1 24 -4.4 67 67 SW 3 6 30.35 1028 10 16 0.00 0.00
4:53 am 04:53 Clear 33 0.6 24 -4.4 70 70 Calm 30.37 1028 10 16 0.00 0.00
5:53 am 05:53 Clear 32 0 24 -4.4 73 73 Calm 30.40 1029 10 16 0.00 0.00
6:53 am 06:53 Sunny 34 1.1 26 -3.3 73 73 Calm 30.42 1030 10 16 0.00 0.00
7:53 am 07:53 Sunny 42 5.6 29 -1.7 60 60 Calm 30.44 1031 10 16 0.00 0.00
8:53 am 08:53 Sunny 51 10.6 25 -3.9 36 36 ENE 8 13 30.45 1031 10 16 0.00 0.00
9:53 am 09:53 Sunny 54 12.2 25 -3.9 33 33 ENE 13 20 30.46 1032 10 16 0.00 0.00
10:53 am 10:53 Sunny 57 13.9 26 -3.3 30 30 E 12 19 30.46 1032 10 16 0.00 0.00
11:53 am 11:53 Sunny 59 15 27 -2.8 29 29 E 10 17 30.45 1031 10 16 0.00 0.00
12:53 pm 12:53 Sunny 60 15.6 27 -2.8 28 28 E 12 19 30.42 1030 10 16 0.00 0.00
1:53 pm 13:53 Sunny 61 16.1 25 -3.9 25 25 E 8 13 30.40 1030 10 16 0.00 0.00
2:53 pm 14:53 Sunny 62 16.7 25 -3.9 24 24 E 6 9 30.39 1029 10 16 0.00 0.00
3:53 pm 15:53 Sunny 64 17.8 24 -4.4 22 22 NNE 3 6 30.40 1029 10 16 0.00 0.00
4:53 pm 16:53 Sunny 63 17.2 25 -3.9 24 24 Calm 30.40 1030 10 16 0.00 0.00
5:53 pm 17:53 Clear 59 15 24 -4.4 26 26 Calm 30.41 1030 10 16 0.00 0.00
6:53 pm 18:53 Clear 52 11.1 28 -2.2 40 40 Calm 30.42 1030 10 16 0.00 0.00
7:53 pm 19:53 Clear 49 9.4 32 0 52 52 Calm 30.43 1031 10 16 0.00 0.00
8:53 pm 20:53 Clear 47 8.3 32 0 56 56 Calm 30.44 1031 10 16 0.00 0.00
9:53 pm 21:53 Clear 43 6.1 31 -0.6 63 63 Calm 30.45 1031 10 16 0.00 0.00
10:53 pm 22:53 Clear 42 5.6 33 0.6 71 71 Calm 30.46 1031 10 16 0.00 0.00
11:53 pm 23:53 Clear 39 3.9 31 -0.6 73 73 Calm 30.46 1032 10 16 0.00 0.00

Powered by AerisWeather